Miscellaneous Local Product
Issued by NWS Hastings, NE

Home | Current Version | Previous Version | Graphics & Text | Print | Product List | Glossary On
Versions: 1 2 3 4 5 6 7 8 9 10 11 12 13 14 15 16 17 18 19 20 21 22 23 24 25 26 27 28 29 30 31 32 33 34 35 36 37 38 39 40 41 42 43 44 45 46 47 48 49 50
000
AXUS43 KGID 042302
MISGRI

GID CWA HOURLY WEATHER ROUNDUP
NATIONAL WEATHER SERVICE HASTINGS NE
500 PM CST SUN DEC 04 2016

NOTE: "FAIR" INDICATES FEW OR NO CLOUDS BELOW 12,000 FEET WITH NO
SIGNIFICANT WEATHER AND/OR OBSTRUCTIONS TO VISIBILITY.

...SOUTH CENTRAL NEBRASKA...

CITY           SKY/WX    TMP DP  RH WIND       PRES   REMARKS
GRAND ISLAND   CLEAR     44  28  53 S8        29.88R
HASTINGS       CLEAR     45  31  58 S7        29.89S
KEARNEY        CLEAR     46  19  34 SW6       29.87S
ORD            CLEAR     45  15  30 SW6       29.82F
YORK           CLEAR     41  36  81 SW8       29.90R
AURORA         CLEAR     42  33  70 SW8       29.88S
LEXINGTON      CLEAR     44  18  35 W5        29.85F
HOLDREGE       CLEAR     45  18  33 SW5       29.87F
HEBRON         CLEAR     36  32  87 S9        29.93S WCI  29

...NEBRASKA PANHANDLE...

CITY           SKY/WX    TMP DP  RH WIND       PRES   REMARKS
CHADRON        CLOUDY    41  16  36 S9        29.71F
ALLIANCE       CLEAR     46  18  32 W17G26    29.74F
SCOTTSBLUFF    CLEAR     44  17  33 W7        29.75F
SIDNEY         CLEAR     43   8  23 S12       29.78F

...WESTERN AND NORTH CENTRAL NEBRASKA...

CITY           SKY/WX    TMP DP  RH WIND       PRES   REMARKS
VALENTINE      CLEAR     39  12  33 SW8       29.77F WCI  33
AINSWORTH      CLEAR     41  17  38 SW6       29.78F
ONEILL         CLEAR     45  24  44 CALM      29.82F
BROKEN BOW     CLEAR     43  21  41 SW7       29.82F
IMPERIAL       CLEAR     48   9  20 S7        29.83F
NORTH PLATTE   CLEAR     46  18  32 S3        29.83F
MCCOOK         CLEAR     45  14  28 S7        29.87F

...EASTERN NEBRASKA...

CITY           SKY/WX    TMP DP  RH WIND       PRES   REMARKS
NORFOLK        CLEAR     42  24  49 W5        29.84S
SO SIOUX CITY  CLEAR     44  31  60 W5        29.85R
TEKAMAH        CLEAR     38  35  89 S8        29.89R WCI  32
COLUMBUS       CLEAR     45  32  61 S7        29.88R
ALBION         CLEAR     44  24  46 CALM      29.84F
OMAHA EPPLEY   CLEAR     36  30  79 S8        29.91R WCI  30
OFFUTT AFB     CLEAR     38  37  99 S5        29.91S WCI  34
MILLARD        CLEAR     37  32  82 CALM      29.91S
LINCOLN        CLEAR     34  31  88 S5        29.92F WCI  30
NEBRASKA CITY  CLEAR     37  33  85 SW10      29.93S WCI  29
BEATRICE       CLEAR     38  34  84 SW5       29.93S WCI  35
FALLS CITY     CLEAR     41  36  82 SW8       29.96R

...NORTHERN KANSAS...

CITY           SKY/WX    TMP DP  RH WIND       PRES   REMARKS
GOODLAND       CLEAR     46  13  26 S12       29.88F
HILL CITY      CLEAR     48  19  31 W7        29.93S
NORTON         CLEAR     46  14  27 S5        29.89S
PHILLIPSBURG   CLEAR     48  19  32 SW5       29.91F
SMITH CENTER   CLEAR     39  32  75 SE9       29.93S WCI  33
BELOIT         CLEAR     43  32  65 CALM      29.94S
HAYS           CLEAR     46  27  47 SW8       29.96R
RUSSELL        CLEAR     46  28  49 SW7       29.95R
CONCORDIA      CLEAR     41  34  76 SW6       29.95S
SALINA         CLEAR     45  35  68 S7        29.98S
TOPEKA         CLEAR     38  34  85 VRB5      30.01R WCI  34



USA.gov is the U.S. government's official web portal to all federal, state and local government web resources and services.